QPF
0.00 0.00 0.00 0.00 0.00 0.00 0.00 0.00 0.00 0.00 0.00 0.00 0.00 0.00 0.00 0.00 0.00 0.00 0.00 0.00 0.00 0.00 0.00 0.00 0.00 0.00 0.00 0.00 0.00 0.00 0.00 0.00 0.00 0.00 0.00 0.00 0.00 0.00 0.00 0.00 0.00 0.00 0.00 0.00 0.01 0.01 0.01 0.02 0.02 0.02 0.02 0.02 0.02 0.02 0.03 0.04 0.07 0.10 0.12 0.13 0.14 0.14 0.14 0.15 0.14 0.12 0.08 0.05 0.03
0.00 0.00 0.00 0.00 0.00 0.00 0.00 0.00 0.00 0.00 0.00 0.00 0.00 0.00 0.00 0.00 0.00 0.00 0.00 0.00 0.00 0.00 0.00 0.00 0.00 0.00 0.00 0.00 0.00 0.00 0.00 0.00 0.00 0.00 0.00 0.00 0.00 0.00 0.00 0.00 0.00 0.00 0.00 0.01 0.02 0.02 0.02 0.02 0.03 0.03 0.03 0.02 0.02 0.02 0.02 0.04 0.09 0.12 0.13 0.12 0.14 0.15 0.15 0.15 0.14 0.12 0.10 0.10 0.06
0.00 0.00 0.00 0.00 0.00 0.00 0.00 0.00 0.00 0.00 0.00 0.00 0.00 0.00 0.00 0.00 0.00 0.00 0.00 0.00 0.00 0.00 0.00 0.00 0.00 0.00 0.00 0.00 0.00 0.00 0.00 0.00 0.00 0.00 0.00 0.00 0.00 0.00 0.00 0.00 0.00 0.00 0.01 0.03 0.03 0.03 0.03 0.03 0.03 0.03 0.03 0.03 0.03 0.03 0.03 0.03 0.08 0.12 0.14 0.13 0.16 0.19 0.20 0.19 0.17 0.16 0.15 0.14 0.09
0.00 0.00 0.00 0.00 0.00 0.00 0.00 0.00 0.00 0.00 0.00 0.00 0.00 0.00 0.00 0.00 0.00 0.00 0.00 0.00 0.00 0.00 0.00 0.00 0.00 0.00 0.00 0.00 0.00 0.00 0.00 0.00 0.00 0.00 0.00 0.00 0.00 0.00 0.00 0.00 0.00 0.01 0.02 0.05 0.05 0.04 0.04 0.04 0.04 0.04 0.03 0.03 0.03 0.02 0.02 0.02 0.09 0.13 0.16 0.18 0.18 0.19 0.22 0.25 0.24 0.23 0.22 0.19 0.21
0.00 0.00 0.00 0.00 0.00 0.00 0.00 0.00 0.00 0.00 0.00 0.00 0.00 0.00 0.00 0.00 0.00 0.00 0.00 0.00 0.00 0.00 0.00 0.00 0.00 0.00 0.00 0.00 0.00 0.00 0.00 0.00 0.00 0.00 0.00 0.00 0.00 0.00 0.00 0.01 0.01 0.02 0.04 0.06 0.06 0.05 0.05 0.06 0.05 0.04 0.03 0.03 0.02 0.01 0.01 0.01 0.09 0.14 0.16 0.14 0.14 0.15 0.16 0.17 0.20 0.23 0.25 0.26 0.24
0.00 0.00 0.00 0.00 0.00 0.00 0.00 0.00 0.00 0.00 0.00 0.00 0.00 0.00 0.00 0.00 0.00 0.00 0.00 0.00 0.00 0.00 0.00 0.00 0.00 0.00 0.00 0.00 0.00 0.00 0.00 0.00 0.00 0.00 0.00 0.00 0.00 0.01 0.01 0.02 0.03 0.04 0.05 0.06 0.07 0.07 0.07 0.08 0.07 0.05 0.04 0.02 0.02 0.01 0.01 0.01 0.03 0.08 0.12 0.12 0.12 0.13 0.14 0.14 0.14 0.16 0.18 0.22 0.15
0.00 0.00 0.00 0.00 0.00 0.00 0.00 0.00 0.00 0.00 0.00 0.00 0.00 0.00 0.00 0.00 0.00 0.00 0.00 0.00 0.00 0.00 0.00 0.00 0.00 0.00 0.00 0.00 0.00 0.00 0.00 0.00 0.00 0.00 0.00 0.00 0.00 0.01 0.02 0.03 0.03 0.04 0.06 0.07 0.07 0.08 0.08 0.08 0.07 0.06 0.04 0.03 0.02 0.02 0.02 0.02 0.03 0.04 0.07 0.11 0.12 0.13 0.14 0.14 0.13 0.13 0.13 0.13 0.11
0.00 0.00 0.00 0.00 0.00 0.00 0.00 0.00 0.00 0.00 0.00 0.00 0.00 0.00 0.00 0.00 0.00 0.00 0.00 0.00 0.00 0.01 0.01 0.00 0.00 0.00 0.00 0.00 0.00 0.00 0.00 0.00 0.00 0.00 0.00 0.00 0.00 0.01 0.03 0.04 0.05 0.06 0.08 0.09 0.10 0.12 0.13 0.12 0.10 0.08 0.07 0.06 0.04 0.03 0.03 0.03 0.04 0.05 0.07 0.10 0.10 0.11 0.13 0.13 0.12 0.12 0.12 0.12 0.12
0.00 0.00 0.00 0.00 0.00 0.00 0.00 0.00 0.00 0.00 0.00 0.00 0.00 0.00 0.00 0.00 0.00 0.01 0.01 0.00 0.02 0.02 0.02 0.01 0.00 0.00 0.00 0.00 0.00 0.00 0.00 0.00 0.00 0.00 0.00 0.00 0.00 0.01 0.03 0.04 0.06 0.07 0.08 0.10 0.13 0.15 0.16 0.15 0.13 0.12 0.11 0.10 0.08 0.07 0.07 0.06 0.07 0.09 0.10 0.09 0.09 0.10 0.11 0.12 0.12 0.13 0.13 0.13 0.14
0.00 0.00 0.00 0.00 0.00 0.00 0.00 0.00 0.00 0.00 0.00 0.00 0.00 0.00 0.00 0.00 0.01 0.01 0.02 0.02 0.02 0.01 0.00 0.00 0.00 0.00 0.00 0.00 0.00 0.00 0.00 0.00 0.00 0.00 0.00 0.00 0.01 0.01 0.02 0.04 0.06 0.07 0.09 0.11 0.13 0.14 0.15 0.15 0.13 0.13 0.13 0.12 0.12 0.12 0.12 0.11 0.11 0.11 0.10 0.10 0.10 0.11 0.12 0.11 0.12 0.12 0.13 0.13 0.14
0.00 0.00 0.00 0.00 0.00 0.00 0.00 0.00 0.00 0.00 0.00 0.00 0.00 0.00 0.00 0.00 0.01 0.02 0.02 0.01 0.01 0.00 0.00 0.00 0.00 0.00 0.00 0.00 0.00 0.00 0.00 0.00 0.00 0.00 0.00 0.01 0.01 0.01 0.02 0.04 0.06 0.09 0.12 0.14 0.14 0.15 0.15 0.14 0.13 0.13 0.13 0.13 0.13 0.13 0.13 0.12 0.11 0.10 0.08 0.06 0.06 0.08 0.11 0.12 0.12 0.12 0.13 0.13 0.14
0.00 0.00 0.00 0.00 0.00 0.00 0.00 0.00 0.00 0.00 0.00 0.00 0.00 0.00 0.00 0.00 0.00 0.00 0.00 0.00 0.00 0.00 0.00 0.00 0.00 0.00 0.00 0.00 0.00 0.00 0.00 0.00 0.00 0.00 0.00 0.01 0.01 0.01 0.02 0.03 0.06 0.09 0.11 0.12 0.13 0.14 0.15 0.16 0.16 0.15 0.14 0.15 0.14 0.14 0.14 0.14 0.12 0.10 0.08 0.06 0.05 0.04 0.04 0.06 0.08 0.09 0.09 0.06 0.09
0.00 0.00 0.00 0.00 0.00 0.00 0.00 0.00 0.00 0.00 0.00 0.00 0.00 0.00 0.00 0.00 0.00 0.00 0.00 0.00 0.00 0.00 0.00 0.00 0.00 0.00 0.00 0.00 0.00 0.00 0.00 0.00 0.00 0.00 0.01 0.01 0.01 0.01 0.02 0.03 0.06 0.09 0.11 0.12 0.13 0.14 0.15 0.17 0.19 0.19 0.18 0.19 0.18 0.18 0.18 0.20 0.16 0.13 0.11 0.09 0.07 0.05 0.04 0.03 0.02 0.02 0.01 0.01 0.02
0.00 0.00 0.00 0.00 0.00 0.00 0.00 0.00 0.00 0.00 0.00 0.00 0.00 0.00 0.00 0.00 0.00 0.00 0.00 0.00 0.00 0.00 0.00 0.00 0.00 0.00 0.00 0.00 0.00 0.00 0.00 0.00 0.00 0.00 0.01 0.01 0.01 0.01 0.02 0.03 0.05 0.08 0.11 0.13 0.14 0.15 0.16 0.18 0.18 0.18 0.19 0.20 0.21 0.21 0.22 0.23 0.24 0.21 0.17 0.13 0.10 0.07 0.04 0.03 0.02 0.02 0.01 0.01 0.01
0.00 0.00 0.00 0.00 0.00 0.00 0.00 0.00 0.00 0.00 0.00 0.00 0.00 0.00 0.00 0.00 0.00 0.00 0.00 0.00 0.00 0.00 0.00 0.00 0.00 0.00 0.00 0.00 0.00 0.00 0.00 0.00 0.00 0.00 0.01 0.01 0.01 0.01 0.01 0.02 0.02 0.05 0.08 0.11 0.13 0.15 0.17 0.19 0.19 0.18 0.17 0.18 0.18 0.19 0.21 0.21 0.23 0.23 0.20 0.16 0.12 0.08 0.05 0.03 0.02 0.02 0.02 0.02 0.02
0.00 0.00 0.00 0.00 0.00 0.00 0.00 0.00 0.00 0.00 0.00 0.00 0.00 0.00 0.00 0.00 0.00 0.00 0.00 0.00 0.00 0.00 0.00 0.00 0.00 0.00 0.00 0.00 0.00 0.00 0.00 0.00 0.00 0.00 0.00 0.01 0.01 0.01 0.01 0.01 0.01 0.02 0.04 0.07 0.10 0.12 0.15 0.18 0.19 0.19 0.19 0.18 0.18 0.19 0.19 0.17 0.18 0.19 0.18 0.15 0.11 0.08 0.05 0.04 0.03 0.04 0.04 0.04 0.05
0.00 0.00 0.00 0.00 0.00 0.00 0.00 0.00 0.00 0.00 0.00 0.00 0.00 0.00 0.00 0.00 0.00 0.00 0.00 0.00 0.00 0.00 0.00 0.00 0.00 0.00 0.00 0.00 0.00 0.00 0.00 0.00 0.00 0.00 0.00 0.00 0.00 0.01 0.01 0.01 0.01 0.02 0.02 0.04 0.06 0.08 0.10 0.14 0.17 0.19 0.20 0.21 0.21 0.23 0.23 0.21 0.18 0.17 0.15 0.14 0.11 0.08 0.06 0.05 0.05 0.05 0.05 0.05 0.05
0.00 0.00 0.00 0.00 0.00 0.00 0.00 0.00 0.00 0.00 0.00 0.00 0.00 0.00 0.00 0.00 0.00 0.00 0.00 0.00 0.00 0.00 0.00 0.00 0.00 0.00 0.00 0.00 0.00 0.00 0.00 0.00 0.00 0.00 0.00 0.00 0.00 0.01 0.01 0.02 0.02 0.02 0.02 0.02 0.03 0.04 0.06 0.08 0.11 0.14 0.18 0.22 0.22 0.25 0.27 0.26 0.22 0.18 0.15 0.12 0.10 0.09 0.08 0.07 0.06 0.05 0.04 0.04 0.04
0.00 0.00 0.00 0.00 0.00 0.00 0.00 0.00 0.00 0.00 0.00 0.00 0.00 0.00 0.00 0.00 0.00 0.00 0.00 0.00 0.00 0.00 0.00 0.00 0.00 0.00 0.00 0.00 0.00 0.00 0.00 0.00 0.00 0.00 0.00 0.01 0.01 0.01 0.02 0.02 0.02 0.02 0.02 0.02 0.02 0.03 0.04 0.05 0.06 0.09 0.12 0.17 0.16 0.20 0.24 0.28 0.24 0.20 0.15 0.11 0.08 0.07 0.07 0.06 0.05 0.04 0.03 0.02 0.02
0.00 0.00 0.00 0.00 0.00 0.00 0.00 0.00 0.00 0.00 0.00 0.00 0.00 0.00 0.00 0.00 0.00 0.00 0.00 0.00 0.00 0.00 0.00 0.00 0.00 0.00 0.00 0.00 0.00 0.00 0.00 0.00 0.00 0.00 0.01 0.01 0.01 0.02 0.02 0.02 0.02 0.02 0.02 0.02 0.02 0.03 0.04 0.04 0.05 0.07 0.09 0.12 0.12 0.15 0.19 0.26 0.26 0.23 0.17 0.13 0.09 0.07 0.06 0.06 0.05 0.03 0.02 0.02 0.02
0.00 0.00 0.00 0.00 0.00 0.00 0.00 0.00 0.00 0.00 0.00 0.00 0.00 0.00 0.00 0.00 0.00 0.00 0.00 0.00 0.00 0.00 0.00 0.00 0.00 0.00 0.00 0.00 0.00 0.00 0.00 0.00 0.00 0.00 0.01 0.01 0.01 0.02 0.02 0.03 0.03 0.03 0.04 0.04 0.05 0.05 0.06 0.07 0.08 0.08 0.09 0.11 0.11 0.13 0.15 0.18 0.21 0.21 0.18 0.15 0.12 0.10 0.08 0.08 0.07 0.05 0.03 0.02 0.02
0.00 0.00 0.00 0.00 0.00 0.00 0.00 0.00 0.00 0.00 0.00 0.00 0.00 0.00 0.00 0.00 0.00 0.00 0.00 0.00 0.00 0.00 0.00 0.00 0.00 0.00 0.00 0.00 0.00 0.00 0.00 0.00 0.00 0.00 0.01 0.01 0.01 0.02 0.03 0.04 0.05 0.06 0.07 0.07 0.08 0.09 0.10 0.11 0.11 0.11 0.11 0.10 0.10 0.10 0.10 0.11 0.13 0.14 0.14 0.14 0.12 0.11 0.10 0.10 0.08 0.06 0.05 0.03 0.02
0.00 0.00 0.00 0.00 0.00 0.00 0.00 0.00 0.00 0.00 0.00 0.00 0.00 0.00 0.00 0.00 0.00 0.00 0.00 0.00 0.00 0.00 0.00 0.00 0.00 0.00 0.00 0.00 0.00 0.00 0.00 0.00 0.00 0.01 0.01 0.01 0.01 0.02 0.03 0.05 0.08 0.10 0.12 0.13 0.13 0.15 0.16 0.16 0.14 0.12 0.12 0.10 0.09 0.08 0.07 0.07 0.07 0.07 0.08 0.10 0.11 0.10 0.10 0.09 0.07 0.06 0.04 0.03 0.03
0.00 0.00 0.00 0.00 0.00 0.00 0.00 0.00 0.00 0.00 0.00 0.00 0.00 0.00 0.00 0.00 0.00 0.00 0.00 0.00 0.00 0.00 0.00 0.00 0.00 0.00 0.00 0.00 0.00 0.00 0.00 0.00 0.01 0.01 0.01 0.02 0.02 0.02 0.03 0.05 0.10 0.15 0.19 0.23 0.25 0.25 0.24 0.21 0.18 0.18 0.18 0.15 0.13 0.11 0.09 0.06 0.05 0.04 0.04 0.05 0.07 0.06 0.05 0.05 0.04 0.03 0.02 0.02 0.02
0.00 0.00 0.00 0.00 0.00 0.00 0.00 0.00 0.00 0.00 0.00 0.00 0.00 0.00 0.00 0.00 0.00 0.00 0.00 0.00 0.00 0.00 0.00 0.00 0.00 0.00 0.00 0.00 0.00 0.00 0.00 0.00 0.01 0.02 0.03 0.04 0.06 0.07 0.07 0.08 0.08 0.13 0.20 0.28 0.31 0.31 0.30 0.30 0.28 0.30 0.29 0.22 0.20 0.17 0.14 0.09 0.06 0.03 0.02 0.02 0.03 0.02 0.01 0.02 0.01 0.01 0.01 0.01 0.02
0.00 0.00 0.00 0.00 0.00 0.00 0.00 0.00 0.00 0.00 0.00 0.00 0.00 0.00 0.00 0.00 0.00 0.00 0.00 0.00 0.00 0.00 0.00 0.00 0.00 0.00 0.00 0.00 0.00 0.00 0.00 0.00 0.01 0.02 0.03 0.06 0.08 0.10 0.11 0.11 0.07 0.07 0.11 0.19 0.25 0.29 0.31 0.32 0.30 0.30 0.30 0.26 0.22 0.18 0.15 0.11 0.07 0.04 0.02 0.02 0.01 0.01 0.01 0.01 0.01 0.01 0.01 0.01 0.01
0.00 0.00 0.00 0.00 0.00 0.00 0.00 0.00 0.00 0.00 0.00 0.00 0.00 0.00 0.00 0.00 0.00 0.00 0.00 0.00 0.00 0.00 0.00 0.00 0.00 0.00 0.00 0.00 0.00 0.00 0.00 0.00 0.00 0.01 0.01 0.02 0.05 0.09 0.11 0.14 0.14 0.13 0.13 0.15 0.18 0.20 0.22 0.25 0.17 0.14 0.13 0.12 0.11 0.11 0.11 0.10 0.08 0.06 0.04 0.02 0.01 0.01 0.01 0.01 0.01 0.01 0.01 0.01 0.01
0.00 0.00 0.00 0.00 0.00 0.00 0.00 0.00 0.00 0.00 0.00 0.00 0.00 0.00 0.00 0.00 0.00 0.00 0.00 0.00 0.00 0.00 0.00 0.00 0.00 0.00 0.00 0.00 0.00 0.00 0.00 0.00 0.00 0.01 0.01 0.01 0.01 0.03 0.05 0.08 0.13 0.17 0.21 0.24 0.22 0.19 0.15 0.11 0.08 0.06 0.05 0.04 0.03 0.03 0.03 0.03 0.02 0.02 0.01 0.01 0.01 0.01 0.01 0.01 0.01 0.01 0.02 0.02 0.02
0.00 0.00 0.00 0.00 0.00 0.00 0.00 0.00 0.00 0.00 0.00 0.00 0.00 0.00 0.00 0.00 0.00 0.00 0.00 0.00 0.00 0.00 0.00 0.00 0.00 0.00 0.00 0.00 0.00 0.00 0.00 0.01 0.01 0.01 0.01 0.00 0.01 0.01 0.01 0.01 0.03 0.06 0.11 0.17 0.17 0.15 0.11 0.02 0.01 0.01 0.01 0.01 0.01 0.01 0.01 0.01 0.01 0.01 0.01 0.01 0.01 0.01 0.01 0.01 0.01 0.01 0.02 0.02 0.02
0.00 0.00 0.00 0.00 0.00 0.00 0.00 0.00 0.00 0.00 0.00 0.00 0.00 0.00 0.00 0.00 0.00 0.00 0.00 0.00 0.00 0.00 0.00 0.00 0.00 0.00 0.00 0.00 0.00 0.00 0.00 0.00 0.00 0.00 0.00 0.00 0.00 0.00 0.00 0.00 0.01 0.01 0.01 0.02 0.03 0.02 0.01 0.01 0.01 0.00 0.00 0.00 0.00 0.01 0.01 0.01 0.01 0.01 0.01 0.01 0.01 0.01 0.01 0.01 0.02 0.02 0.02 0.02 0.02
0.00 0.00 0.00 0.00 0.00 0.00 0.00 0.00 0.00 0.00 0.00 0.00 0.00 0.00 0.00 0.00 0.00 0.00 0.00 0.00 0.00 0.00 0.00 0.00 0.00 0.00 0.00 0.00 0.00 0.00 0.00 0.00 0.00 0.00 0.00 0.00 0.00 0.00 0.00 0.00 0.01 0.01 0.01 0.01 0.02 0.02 0.01 0.01 0.01 0.01 0.00 0.00 0.01 0.01 0.01 0.01 0.01 0.01 0.01 0.01 0.02 0.02 0.02 0.02 0.03 0.03 0.03 0.02 0.02
0.00 0.00 0.00 0.00 0.00 0.00 0.00 0.00 0.00 0.00 0.00 0.00 0.00 0.00 0.00 0.00 0.00 0.00 0.00 0.00 0.00 0.00 0.00 0.00 0.00 0.00 0.00 0.00 0.00 0.00 0.00 0.00 0.00 0.00 0.00 0.00 0.00 0.00 0.00 0.00 0.01 0.01 0.02 0.02 0.02 0.02 0.02 0.01 0.01 0.01 0.00 0.01 0.01 0.01 0.01 0.01 0.01 0.01 0.01 0.02 0.02 0.03 0.03 0.03 0.03 0.03 0.02 0.02 0.02
0.00 0.00 0.00 0.00 0.00 0.00 0.00 0.00 0.00 0.00 0.00 0.00 0.00 0.00 0.00 0.00 0.00 0.00 0.00 0.00 0.00 0.00 0.00 0.00 0.00 0.00 0.00 0.00 0.00 0.00 0.00 0.00 0.00 0.00 0.00 0.00 0.00 0.01 0.01 0.01 0.01 0.02 0.02 0.02 0.02 0.02 0.02 0.01 0.01 0.01 0.01 0.01 0.01 0.01 0.01 0.01 0.01 0.02 0.02 0.02 0.03 0.03 0.04 0.04 0.04 0.03 0.03 0.03 0.02
0.00 0.00 0.00 0.00 0.00 0.00 0.00 0.00 0.00 0.00 0.00 0.00 0.00 0.00 0.00 0.00 0.00 0.00 0.00 0.00 0.00 0.00 0.00 0.00 0.00 0.00 0.00 0.00 0.00 0.00 0.00 0.00 0.00 0.00 0.01 0.01 0.01 0.01 0.01 0.02 0.02 0.03 0.03 0.03 0.03 0.02 0.02 0.01 0.01 0.01 0.01 0.01 0.01 0.01 0.01 0.01 0.01 0.02 0.03 0.03 0.04 0.04 0.04 0.03 0.03 0.03 0.02 0.02 0.01
0.01 0.01 0.01 0.01 0.01 0.01 0.01 0.00 0.00 0.00 0.00 0.00 0.00 0.00 0.00 0.00 0.00 0.00 0.00 0.00 0.00 0.00 0.00 0.00 0.00 0.00 0.00 0.00 0.00 0.00 0.00 0.00 0.01 0.01 0.01 0.01 0.01 0.02 0.02 0.03 0.03 0.03 0.03 0.03 0.02 0.02 0.01 0.01 0.01 0.01 0.01 0.01 0.01 0.01 0.01 0.02 0.02 0.03 0.03 0.04 0.04 0.03 0.03 0.03 0.03 0.02 0.01 0.01 0.00
0.01 0.01 0.01 0.01 0.01 0.01 0.01 0.01 0.00 0.00 0.00 0.00 0.00 0.00 0.00 0.00 0.00 0.00 0.00 0.00 0.00 0.00 0.00 0.00 0.00 0.00 0.00 0.00 0.00 0.01 0.01 0.01 0.01 0.01 0.02 0.02 0.02 0.02 0.03 0.03 0.03 0.03 0.03 0.02 0.02 0.01 0.01 0.01 0.01 0.01 0.01 0.01 0.01 0.01 0.02 0.02 0.03 0.03 0.03 0.04 0.04 0.03 0.03 0.02 0.02 0.01 0.01 0.00 0.00
0.02 0.02 0.01 0.01 0.01 0.01 0.01 0.00 0.00 0.00 0.00 0.00 0.00 0.00 0.00 0.00 0.00 0.00 0.00 0.00 0.00 0.00 0.00 0.00 0.00 0.01 0.01 0.01 0.01 0.01 0.01 0.01 0.02 0.02 0.02 0.02 0.02 0.03 0.03 0.03 0.03 0.03 0.02 0.02 0.02 0.02 0.01 0.01 0.01 0.01 0.01 0.01 0.01 0.01 0.02 0.02 0.03 0.03 0.03 0.03 0.03 0.02 0.02 0.01 0.01 0.00 0.00 0.00 0.00
0.02 0.01 0.01 0.01 0.01 0.00 0.00 0.00 0.00 0.00 0.00 0.00 0.00 0.00 0.00 0.00 0.00 0.00 0.00 0.00 0.00 0.00 0.00 0.01 0.01 0.01 0.01 0.01 0.01 0.02 0.02 0.02 0.02 0.03 0.03 0.03 0.03 0.03 0.03 0.03 0.03 0.03 0.02 0.02 0.02 0.02 0.01 0.01 0.01 0.01 0.01 0.01 0.01 0.02 0.02 0.03 0.03 0.02 0.02 0.02 0.01 0.01 0.01 0.00 0.00 0.00 0.00 0.00 0.00
0.01 0.01 0.01 0.00 0.00 0.00 0.00 0.00 0.00 0.00 0.00 0.00 0.00 0.00 0.00 0.00 0.00 0.00 0.00 0.00 0.00 0.00 0.01 0.01 0.01 0.01 0.02 0.02 0.03 0.03 0.03 0.04 0.04 0.04 0.04 0.04 0.03 0.03 0.03 0.03 0.03 0.02 0.02 0.02 0.02 0.01 0.01 0.01 0.01 0.01 0.01 0.02 0.02 0.02 0.02 0.03 0.03 0.02 0.02 0.01 0.01 0.01 0.00 0.00 0.00 0.00 0.00 0.00 0.00
0.00 0.00 0.00 0.00 0.00 0.00 0.00 0.00 0.00 0.00 0.00 0.00 0.00 0.00 0.00 0.00 0.00 0.00 0.00 0.00 0.01 0.01 0.01 0.01 0.02 0.02 0.03 0.03 0.04 0.04 0.05 0.05 0.05 0.04 0.04 0.04 0.04 0.03 0.03 0.03 0.03 0.02 0.02 0.02 0.02 0.02 0.02 0.02 0.02 0.02 0.02 0.02 0.02 0.02 0.02 0.02 0.02 0.02 0.01 0.01 0.00 0.00 0.00 0.00 0.00 0.00 0.00 0.00 0.00
0.00 0.00 0.00 0.00 0.00 0.00 0.00 0.00 0.00 0.00 0.00 0.00 0.00 0.00 0.01 0.01 0.01 0.01 0.01 0.01 0.01 0.01 0.01 0.01 0.02 0.02 0.02 0.02 0.03 0.03 0.04 0.04 0.04 0.04 0.04 0.03 0.03 0.03 0.04 0.04 0.04 0.05 0.04 0.04 0.03 0.03 0.03 0.03 0.03 0.02 0.02 0.02 0.02 0.02 0.01 0.01 0.01 0.01 0.00 0.00 0.00 0.00 0.00 0.00 0.00 0.00 0.00 0.00 0.00
MSLP
1009.63 1009.47 1009.35 1009.27 1009.15 1009.07 1008.99 1008.91 1008.91 1008.91 1008.91 1008.91 1008.91 1008.91 1008.91 1009.03 1009.15 1009.23 1009.31 1009.39 1009.43 1009.47 1009.47 1009.55 1009.63 1009.75 1009.87 1009.95 1010.07 1010.19 1010.23 1010.35 1010.47 1010.63 1010.75 1010.91 1011.07 1011.27 1011.47 1011.67 1011.87 1012.07 1012.19 1012.35 1012.63 1012.99 1013.27 1013.51 1013.79 1013.99 1014.19 1014.47 1014.63 1014.91 1015.19 1015.35 1015.39 1015.47 1015.55 1015.63 1015.71 1015.75 1015.75 1015.71 1015.67 1015.79 1016.03 1016.23 1016.51
1009.63 1009.51 1009.43 1009.35 1009.19 1009.07 1008.99 1008.91 1008.83 1008.79 1008.79 1008.79 1008.83 1008.79 1008.79 1008.87 1008.95 1009.07 1009.15 1009.27 1009.31 1009.31 1009.35 1009.39 1009.47 1009.63 1009.79 1009.83 1009.91 1010.07 1010.19 1010.27 1010.39 1010.51 1010.63 1010.75 1010.99 1011.23 1011.47 1011.75 1011.91 1012.11 1012.35 1012.63 1012.91 1013.19 1013.39 1013.63 1013.83 1014.11 1014.35 1014.63 1014.83 1015.11 1015.39 1015.59 1015.71 1015.83 1015.91 1016.03 1016.11 1016.15 1016.07 1015.95 1015.79 1015.79 1015.95 1016.15 1016.35
1009.63 1009.55 1009.47 1009.35 1009.27 1009.15 1009.03 1008.91 1008.75 1008.75 1008.71 1008.67 1008.67 1008.67 1008.67 1008.71 1008.75 1008.83 1008.95 1009.07 1009.07 1009.11 1009.19 1009.31 1009.39 1009.51 1009.63 1009.75 1009.83 1009.95 1010.07 1010.19 1010.35 1010.47 1010.63 1010.83 1011.07 1011.35 1011.55 1011.79 1012.03 1012.27 1012.55 1012.75 1012.99 1013.23 1013.47 1013.67 1013.91 1014.15 1014.35 1014.59 1014.91 1015.27 1015.55 1015.79 1015.91 1016.07 1016.15 1016.27 1016.43 1016.51 1016.47 1016.35 1016.15 1016.03 1016.07 1016.19 1016.39
1009.59 1009.51 1009.43 1009.35 1009.23 1009.15 1008.99 1008.83 1008.71 1008.63 1008.59 1008.59 1008.59 1008.63 1008.63 1008.63 1008.67 1008.71 1008.75 1008.79 1008.87 1008.95 1009.07 1009.19 1009.35 1009.43 1009.51 1009.63 1009.79 1009.91 1010.03 1010.19 1010.35 1010.51 1010.75 1011.03 1011.23 1011.47 1011.63 1011.91 1012.19 1012.43 1012.67 1012.91 1013.11 1013.31 1013.51 1013.75 1013.99 1014.19 1014.35 1014.47 1014.87 1015.23 1015.55 1015.79 1016.03 1016.19 1016.31 1016.43 1016.55 1016.63 1016.67 1016.63 1016.55 1016.43 1016.35 1016.35 1016.47
1009.47 1009.43 1009.39 1009.35 1009.23 1009.11 1008.99 1008.87 1008.71 1008.55 1008.47 1008.43 1008.47 1008.51 1008.55 1008.55 1008.59 1008.63 1008.63 1008.71 1008.75 1008.83 1008.91 1009.03 1009.19 1009.31 1009.39 1009.55 1009.67 1009.87 1010.07 1010.27 1010.47 1010.67 1010.91 1011.19 1011.47 1011.67 1011.91 1012.11 1012.35 1012.51 1012.75 1012.99 1013.19 1013.35 1013.59 1013.75 1013.95 1014.07 1014.19 1014.35 1014.75 1015.15 1015.43 1015.67 1015.91 1016.11 1016.27 1016.39 1016.47 1016.63 1016.75 1016.83 1016.87 1016.79 1016.75 1016.71 1016.75
1009.43 1009.35 1009.31 1009.23 1009.19 1009.11 1009.03 1008.87 1008.71 1008.59 1008.47 1008.35 1008.35 1008.35 1008.39 1008.43 1008.47 1008.51 1008.63 1008.67 1008.67 1008.71 1008.75 1008.91 1009.07 1009.19 1009.35 1009.55 1009.79 1009.99 1010.19 1010.43 1010.63 1010.87 1011.11 1011.43 1011.67 1011.91 1012.15 1012.35 1012.51 1012.71 1012.91 1013.07 1013.19 1013.39 1013.59 1013.79 1013.91 1013.95 1013.99 1014.15 1014.55 1014.95 1015.31 1015.59 1015.79 1015.91 1016.11 1016.31 1016.47 1016.59 1016.75 1016.87 1016.95 1016.99 1016.99 1016.95 1016.99
1009.43 1009.35 1009.27 1009.19 1009.15 1009.11 1009.03 1008.91 1008.75 1008.63 1008.47 1008.35 1008.31 1008.27 1008.27 1008.27 1008.35 1008.39 1008.47 1008.51 1008.55 1008.63 1008.67 1008.87 1009.07 1009.27 1009.47 1009.71 1009.91 1010.19 1010.43 1010.63 1010.79 1011.03 1011.35 1011.67 1011.99 1012.19 1012.39 1012.59 1012.75 1012.87 1013.03 1013.19 1013.35 1013.47 1013.63 1013.75 1013.87 1013.87 1013.87 1014.03 1014.43 1014.87 1015.23 1015.47 1015.63 1015.83 1016.03 1016.19 1016.39 1016.59 1016.75 1016.87 1016.99 1017.07 1017.07 1017.07 1017.15
1009.43 1009.35 1009.27 1009.19 1009.07 1009.03 1008.95 1008.91 1008.75 1008.67 1008.55 1008.39 1008.31 1008.19 1008.19 1008.19 1008.15 1008.19 1008.27 1008.35 1008.47 1008.59 1008.75 1009.03 1009.19 1009.43 1009.67 1009.91 1010.07 1010.35 1010.59 1010.87 1011.07 1011.35 1011.63 1011.95 1012.15 1012.35 1012.59 1012.75 1012.91 1013.07 1013.19 1013.35 1013.47 1013.59 1013.71 1013.79 1013.87 1013.83 1013.83 1013.91 1014.31 1014.75 1015.19 1015.39 1015.55 1015.71 1015.91 1016.19 1016.39 1016.59 1016.75 1016.91 1017.03 1017.07 1017.11 1017.15 1017.23
1009.39 1009.31 1009.19 1009.15 1009.07 1008.99 1008.91 1008.91 1008.79 1008.71 1008.63 1008.47 1008.31 1008.19 1008.15 1008.11 1008.07 1008.11 1008.23 1008.43 1008.51 1008.71 1009.03 1009.31 1009.47 1009.63 1009.91 1010.15 1010.35 1010.63 1010.87 1011.11 1011.35 1011.63 1011.91 1012.07 1012.31 1012.47 1012.67 1012.87 1013.07 1013.19 1013.35 1013.51 1013.59 1013.67 1013.79 1013.87 1013.91 1013.87 1013.83 1013.91 1014.19 1014.59 1015.03 1015.27 1015.47 1015.63 1015.91 1016.19 1016.39 1016.63 1016.75 1016.91 1017.03 1017.07 1017.11 1017.19 1017.31
1009.35 1009.23 1009.15 1009.07 1008.95 1008.91 1008.83 1008.79 1008.75 1008.67 1008.63 1008.47 1008.35 1008.23 1008.15 1008.11 1008.11 1008.19 1008.39 1008.63 1008.75 1008.91 1009.11 1009.39 1009.59 1009.83 1010.11 1010.43 1010.71 1010.95 1011.19 1011.47 1011.67 1011.91 1012.11 1012.23 1012.47 1012.63 1012.79 1013.03 1013.19 1013.35 1013.51 1013.67 1013.75 1013.83 1013.91 1013.95 1013.95 1013.95 1013.91 1013.99 1014.15 1014.47 1014.87 1015.15 1015.35 1015.59 1015.83 1016.11 1016.35 1016.55 1016.75 1016.91 1017.03 1017.11 1017.19 1017.19 1017.35
1009.35 1009.19 1009.07 1008.99 1008.91 1008.83 1008.75 1008.75 1008.67 1008.63 1008.55 1008.47 1008.39 1008.27 1008.19 1008.19 1008.35 1008.51 1008.71 1008.91 1008.95 1009.07 1009.27 1009.47 1009.75 1010.07 1010.35 1010.71 1010.99 1011.23 1011.47 1011.71 1011.91 1012.15 1012.35 1012.47 1012.67 1012.83 1013.03 1013.19 1013.35 1013.51 1013.63 1013.79 1013.91 1013.95 1014.07 1014.11 1014.11 1014.07 1014.11 1014.19 1014.31 1014.55 1014.83 1015.07 1015.23 1015.51 1015.83 1016.07 1016.27 1016.47 1016.71 1016.91 1017.07 1017.19 1017.27 1017.35 1017.39
1009.27 1009.19 1009.07 1008.95 1008.83 1008.75 1008.71 1008.63 1008.59 1008.51 1008.47 1008.43 1008.35 1008.31 1008.39 1008.63 1008.75 1008.87 1008.95 1009.03 1009.15 1009.39 1009.67 1009.91 1010.19 1010.47 1010.71 1010.95 1011.23 1011.47 1011.71 1011.95 1012.19 1012.35 1012.55 1012.75 1012.91 1013.07 1013.19 1013.35 1013.51 1013.67 1013.79 1013.91 1014.03 1014.11 1014.19 1014.31 1014.31 1014.27 1014.31 1014.39 1014.55 1014.71 1014.87 1015.07 1015.27 1015.55 1015.87 1016.11 1016.27 1016.47 1016.67 1016.91 1017.11 1017.27 1017.35 1017.43 1017.51
1009.19 1009.07 1008.99 1008.87 1008.75 1008.71 1008.67 1008.59 1008.51 1008.39 1008.35 1008.35 1008.47 1008.59 1008.79 1009.07 1009.15 1009.19 1009.27 1009.35 1009.59 1009.91 1010.19 1010.47 1010.67 1010.91 1011.07 1011.27 1011.47 1011.75 1011.95 1012.19 1012.47 1012.63 1012.79 1012.95 1013.11 1013.23 1013.39 1013.51 1013.67 1013.79 1013.91 1014.07 1014.19 1014.31 1014.43 1014.51 1014.55 1014.51 1014.51 1014.59 1014.67 1014.79 1014.95 1015.11 1015.35 1015.63 1015.91 1016.11 1016.27 1016.43 1016.63 1016.91 1017.07 1017.27 1017.39 1017.47 1017.63
1009.19 1009.03 1008.91 1008.79 1008.75 1008.67 1008.59 1008.47 1008.39 1008.35 1008.47 1008.71 1008.91 1009.07 1009.23 1009.47 1009.59 1009.63 1009.75 1009.87 1010.03 1010.27 1010.51 1010.75 1010.99 1011.19 1011.39 1011.63 1011.83 1012.07 1012.23 1012.47 1012.63 1012.83 1012.99 1013.19 1013.35 1013.47 1013.59 1013.71 1013.83 1013.95 1014.07 1014.23 1014.35 1014.47 1014.63 1014.79 1014.87 1014.83 1014.79 1014.79 1014.75 1014.87 1015.07 1015.23 1015.51 1015.75 1015.95 1016.11 1016.27 1016.39 1016.63 1016.87 1017.07 1017.23 1017.39 1017.51 1017.67
1009.07 1008.95 1008.87 1008.79 1008.75 1008.63 1008.47 1008.43 1008.47 1008.63 1008.87 1009.15 1009.35 1009.47 1009.63 1009.83 1009.95 1010.07 1010.15 1010.27 1010.39 1010.55 1010.75 1011.07 1011.35 1011.59 1011.79 1011.95 1012.11 1012.31 1012.47 1012.67 1012.87 1013.03 1013.19 1013.35 1013.51 1013.67 1013.79 1013.91 1014.03 1014.19 1014.31 1014.39 1014.55 1014.71 1014.91 1015.07 1015.19 1015.31 1015.27 1015.15 1014.95 1014.95 1015.19 1015.51 1015.83 1016.03 1016.11 1016.19 1016.31 1016.43 1016.63 1016.87 1017.07 1017.23 1017.39 1017.55 1017.75
1009.07 1008.99 1008.91 1008.79 1008.71 1008.55 1008.47 1008.63 1008.83 1009.07 1009.23 1009.43 1009.63 1009.79 1009.95 1010.11 1010.23 1010.39 1010.51 1010.63 1010.79 1010.99 1011.19 1011.43 1011.67 1011.91 1012.07 1012.23 1012.35 1012.51 1012.67 1012.83 1013.03 1013.19 1013.31 1013.47 1013.67 1013.83 1013.99 1014.11 1014.27 1014.39 1014.51 1014.63 1014.75 1014.91 1015.11 1015.31 1015.51 1015.63 1015.67 1015.55 1015.31 1015.19 1015.35 1015.79 1016.19 1016.39 1016.47 1016.43 1016.47 1016.55 1016.63 1016.83 1017.07 1017.31 1017.47 1017.63 1017.79
1009.19 1009.07 1008.95 1008.83 1008.75 1008.71 1008.83 1009.03 1009.19 1009.35 1009.51 1009.71 1009.91 1010.07 1010.23 1010.39 1010.55 1010.71 1010.91 1011.03 1011.19 1011.35 1011.55 1011.75 1011.91 1012.11 1012.27 1012.43 1012.55 1012.67 1012.83 1012.99 1013.15 1013.31 1013.47 1013.59 1013.79 1013.99 1014.19 1014.35 1014.51 1014.63 1014.75 1014.83 1014.91 1015.07 1015.31 1015.51 1015.71 1015.83 1015.91 1015.91 1015.79 1015.67 1015.75 1016.11 1016.47 1016.67 1016.75 1016.75 1016.79 1016.75 1016.79 1016.91 1017.11 1017.35 1017.59 1017.79 1017.91
1009.31 1009.19 1009.11 1009.07 1008.99 1009.15 1009.35 1009.47 1009.55 1009.71 1009.91 1010.07 1010.23 1010.43 1010.59 1010.75 1010.87 1011.03 1011.19 1011.35 1011.47 1011.59 1011.75 1011.91 1012.07 1012.27 1012.43 1012.59 1012.71 1012.83 1012.99 1013.19 1013.35 1013.47 1013.63 1013.79 1013.99 1014.19 1014.39 1014.63 1014.75 1014.91 1014.99 1015.07 1015.15 1015.27 1015.47 1015.63 1015.83 1015.99 1016.15 1016.27 1016.35 1016.35 1016.35 1016.47 1016.63 1016.79 1016.95 1017.07 1017.11 1017.07 1017.07 1017.15 1017.27 1017.47 1017.67 1017.87 1018.03
1009.47 1009.47 1009.51 1009.55 1009.59 1009.63 1009.79 1009.91 1010.03 1010.15 1010.35 1010.47 1010.67 1010.79 1010.91 1011.07 1011.15 1011.27 1011.39 1011.55 1011.67 1011.79 1011.91 1012.11 1012.31 1012.47 1012.67 1012.83 1012.99 1013.11 1013.27 1013.47 1013.59 1013.75 1013.91 1014.07 1014.23 1014.43 1014.63 1014.79 1014.95 1015.11 1015.23 1015.31 1015.39 1015.47 1015.63 1015.79 1015.95 1016.15 1016.31 1016.47 1016.67 1016.83 1016.83 1016.75 1016.75 1016.95 1017.19 1017.35 1017.39 1017.39 1017.35 1017.35 1017.47 1017.63 1017.83 1017.99 1018.15
1009.91 1010.03 1010.11 1010.15 1010.15 1010.19 1010.23 1010.35 1010.47 1010.59 1010.75 1010.91 1011.07 1011.19 1011.27 1011.39 1011.47 1011.51 1011.63 1011.79 1011.95 1012.07 1012.19 1012.39 1012.55 1012.75 1012.91 1013.07 1013.23 1013.39 1013.59 1013.75 1013.91 1013.99 1014.15 1014.31 1014.47 1014.63 1014.79 1014.99 1015.15 1015.31 1015.47 1015.55 1015.63 1015.71 1015.79 1015.91 1016.07 1016.27 1016.47 1016.59 1016.79 1016.99 1017.07 1017.03 1017.07 1017.19 1017.39 1017.47 1017.59 1017.59 1017.51 1017.51 1017.63 1017.83 1018.03 1018.19 1018.35
1010.47 1010.55 1010.59 1010.59 1010.59 1010.63 1010.67 1010.75 1010.87 1010.99 1011.15 1011.31 1011.43 1011.51 1011.63 1011.67 1011.75 1011.83 1011.91 1012.07 1012.19 1012.35 1012.47 1012.63 1012.75 1012.91 1013.07 1013.23 1013.43 1013.63 1013.83 1014.03 1014.11 1014.23 1014.35 1014.51 1014.67 1014.83 1014.99 1015.11 1015.31 1015.47 1015.63 1015.75 1015.87 1015.91 1015.99 1016.07 1016.19 1016.43 1016.63 1016.79 1016.99 1017.11 1017.19 1017.19 1017.27 1017.39 1017.55 1017.67 1017.75 1017.71 1017.63 1017.67 1017.83 1018.03 1018.23 1018.39 1018.59
1010.83 1010.91 1010.95 1010.95 1011.03 1011.03 1011.07 1011.19 1011.31 1011.43 1011.55 1011.67 1011.79 1011.83 1011.87 1011.91 1011.99 1012.07 1012.23 1012.35 1012.43 1012.51 1012.67 1012.79 1012.91 1013.07 1013.19 1013.39 1013.63 1013.83 1014.07 1014.19 1014.35 1014.43 1014.55 1014.67 1014.87 1015.03 1015.19 1015.31 1015.47 1015.63 1015.79 1015.91 1016.07 1016.15 1016.19 1016.27 1016.35 1016.47 1016.75 1017.03 1017.19 1017.31 1017.35 1017.39 1017.47 1017.63 1017.79 1017.91 1017.91 1017.87 1017.83 1017.87 1018.03 1018.23 1018.47 1018.67 1018.83
1011.15 1011.19 1011.23 1011.31 1011.39 1011.43 1011.47 1011.55 1011.63 1011.79 1011.91 1011.95 1012.03 1012.07 1012.07 1012.15 1012.23 1012.35 1012.47 1012.55 1012.63 1012.75 1012.87 1012.99 1013.15 1013.31 1013.47 1013.63 1013.79 1013.99 1014.19 1014.35 1014.47 1014.59 1014.71 1014.87 1015.03 1015.19 1015.35 1015.47 1015.67 1015.83 1015.99 1016.07 1016.19 1016.35 1016.47 1016.51 1016.47 1016.59 1016.83 1017.15 1017.35 1017.43 1017.51 1017.63 1017.75 1017.91 1018.07 1018.19 1018.15 1018.07 1018.03 1018.07 1018.27 1018.47 1018.67 1018.87 1019.07
1011.39 1011.47 1011.51 1011.59 1011.63 1011.75 1011.79 1011.87 1011.95 1012.07 1012.11 1012.19 1012.19 1012.27 1012.35 1012.43 1012.55 1012.63 1012.71 1012.79 1012.91 1012.99 1013.11 1013.27 1013.43 1013.59 1013.75 1013.87 1013.99 1014.11 1014.27 1014.39 1014.51 1014.67 1014.79 1014.99 1015.19 1015.35 1015.55 1015.71 1015.91 1016.07 1016.19 1016.23 1016.27 1016.43 1016.63 1016.75 1016.75 1016.79 1016.95 1017.19 1017.39 1017.51 1017.63 1017.79 1018.03 1018.23 1018.35 1018.39 1018.35 1018.31 1018.27 1018.35 1018.47 1018.63 1018.87 1019.07 1019.27
1011.59 1011.63 1011.75 1011.83 1011.91 1011.99 1012.07 1012.15 1012.19 1012.23 1012.31 1012.35 1012.43 1012.51 1012.59 1012.67 1012.79 1012.87 1012.99 1013.07 1013.19 1013.31 1013.47 1013.59 1013.75 1013.87 1013.99 1014.11 1014.23 1014.31 1014.39 1014.47 1014.55 1014.67 1014.87 1015.07 1015.27 1015.47 1015.75 1015.99 1016.19 1016.35 1016.39 1016.35 1016.23 1016.35 1016.59 1016.87 1016.99 1017.11 1017.23 1017.39 1017.47 1017.59 1017.71 1017.95 1018.23 1018.47 1018.63 1018.63 1018.55 1018.51 1018.51 1018.59 1018.67 1018.83 1019.07 1019.27 1019.43
1011.75 1011.83 1011.91 1012.03 1012.07 1012.19 1012.27 1012.35 1012.43 1012.51 1012.59 1012.63 1012.75 1012.79 1012.91 1012.99 1013.07 1013.19 1013.31 1013.39 1013.51 1013.63 1013.79 1013.91 1013.99 1014.15 1014.27 1014.35 1014.43 1014.51 1014.59 1014.63 1014.71 1014.79 1014.95 1015.15 1015.35 1015.63 1015.91 1016.19 1016.39 1016.55 1016.55 1016.39 1016.19 1016.27 1016.55 1016.91 1017.19 1017.35 1017.47 1017.63 1017.67 1017.75 1017.91 1018.19 1018.47 1018.63 1018.75 1018.75 1018.75 1018.71 1018.71 1018.79 1018.91 1019.07 1019.23 1019.43 1019.63
1011.91 1012.07 1012.15 1012.27 1012.35 1012.47 1012.59 1012.67 1012.75 1012.91 1012.99 1013.07 1013.07 1013.19 1013.27 1013.35 1013.47 1013.55 1013.63 1013.79 1013.91 1013.99 1014.07 1014.19 1014.31 1014.39 1014.47 1014.59 1014.67 1014.71 1014.75 1014.83 1014.91 1015.03 1015.11 1015.23 1015.47 1015.71 1016.03 1016.31 1016.55 1016.71 1016.71 1016.51 1016.27 1016.27 1016.59 1016.99 1017.35 1017.59 1017.71 1017.79 1017.91 1018.03 1018.15 1018.35 1018.59 1018.79 1018.91 1018.91 1018.91 1018.91 1018.95 1019.03 1019.11 1019.23 1019.35 1019.59 1019.79
1012.19 1012.31 1012.47 1012.55 1012.71 1012.83 1012.99 1013.07 1013.19 1013.31 1013.35 1013.47 1013.51 1013.59 1013.63 1013.79 1013.87 1013.91 1014.03 1014.11 1014.19 1014.31 1014.39 1014.47 1014.59 1014.63 1014.75 1014.83 1014.91 1014.91 1014.95 1015.07 1015.15 1015.27 1015.43 1015.51 1015.67 1015.91 1016.11 1016.39 1016.59 1016.71 1016.71 1016.59 1016.39 1016.47 1016.75 1017.19 1017.47 1017.75 1017.91 1018.07 1018.19 1018.27 1018.35 1018.51 1018.75 1018.91 1019.07 1019.11 1019.15 1019.19 1019.19 1019.23 1019.27 1019.35 1019.51 1019.71 1019.87
1012.47 1012.63 1012.75 1012.91 1012.99 1013.15 1013.31 1013.47 1013.59 1013.67 1013.79 1013.87 1013.91 1013.95 1014.07 1014.15 1014.19 1014.31 1014.39 1014.47 1014.55 1014.63 1014.67 1014.75 1014.83 1014.91 1015.03 1015.07 1015.11 1015.15 1015.19 1015.23 1015.35 1015.55 1015.71 1015.83 1015.99 1016.15 1016.31 1016.47 1016.63 1016.75 1016.75 1016.71 1016.63 1016.75 1016.99 1017.35 1017.63 1017.91 1018.07 1018.23 1018.39 1018.47 1018.59 1018.75 1018.91 1019.07 1019.19 1019.27 1019.35 1019.35 1019.39 1019.43 1019.43 1019.51 1019.67 1019.83 1019.99
1012.83 1012.95 1013.07 1013.19 1013.31 1013.47 1013.63 1013.75 1013.87 1013.99 1014.07 1014.19 1014.27 1014.31 1014.35 1014.43 1014.51 1014.63 1014.67 1014.75 1014.79 1014.91 1014.95 1014.99 1015.07 1015.15 1015.19 1015.27 1015.31 1015.35 1015.39 1015.51 1015.67 1015.79 1015.95 1016.07 1016.23 1016.35 1016.47 1016.63 1016.71 1016.79 1016.87 1016.87 1016.91 1017.07 1017.27 1017.55 1017.83 1018.07 1018.27 1018.39 1018.55 1018.67 1018.83 1018.99 1019.11 1019.23 1019.35 1019.47 1019.51 1019.51 1019.51 1019.55 1019.63 1019.71 1019.83 1019.95 1020.07
1013.19 1013.31 1013.35 1013.47 1013.59 1013.71 1013.83 1013.95 1014.11 1014.23 1014.35 1014.43 1014.51 1014.59 1014.63 1014.71 1014.79 1014.87 1014.91 1014.99 1015.07 1015.11 1015.19 1015.19 1015.23 1015.31 1015.35 1015.39 1015.47 1015.51 1015.63 1015.79 1015.91 1016.07 1016.19 1016.27 1016.39 1016.51 1016.63 1016.75 1016.87 1016.95 1017.03 1017.11 1017.19 1017.39 1017.63 1017.91 1018.07 1018.31 1018.47 1018.63 1018.79 1018.95 1019.07 1019.19 1019.31 1019.43 1019.51 1019.59 1019.63 1019.67 1019.67 1019.71 1019.79 1019.91 1019.99 1020.07 1020.19
1013.51 1013.63 1013.67 1013.75 1013.83 1013.95 1014.07 1014.19 1014.35 1014.47 1014.59 1014.67 1014.75 1014.83 1014.91 1014.99 1015.07 1015.11 1015.19 1015.19 1015.23 1015.27 1015.31 1015.35 1015.35 1015.43 1015.51 1015.63 1015.67 1015.79 1015.91 1016.07 1016.19 1016.35 1016.47 1016.55 1016.63 1016.75 1016.87 1016.95 1017.07 1017.19 1017.27 1017.39 1017.55 1017.79 1018.03 1018.19 1018.39 1018.55 1018.67 1018.87 1018.99 1019.15 1019.27 1019.39 1019.47 1019.59 1019.63 1019.71 1019.79 1019.79 1019.83 1019.91 1020.03 1020.11 1020.19 1020.31 1020.39
1013.87 1013.91 1013.95 1013.99 1014.11 1014.23 1014.35 1014.47 1014.59 1014.67 1014.75 1014.87 1014.95 1015.07 1015.15 1015.19 1015.23 1015.31 1015.35 1015.35 1015.35 1015.35 1015.39 1015.47 1015.51 1015.63 1015.71 1015.83 1015.91 1016.07 1016.19 1016.31 1016.47 1016.59 1016.67 1016.75 1016.87 1016.95 1017.07 1017.19 1017.35 1017.47 1017.63 1017.79 1017.99 1018.19 1018.39 1018.51 1018.67 1018.79 1018.95 1019.07 1019.23 1019.39 1019.47 1019.55 1019.63 1019.71 1019.79 1019.91 1019.91 1020.03 1020.07 1020.11 1020.19 1020.31 1020.39 1020.47 1020.55
1014.19 1014.19 1014.23 1014.35 1014.43 1014.51 1014.63 1014.71 1014.79 1014.87 1014.95 1015.07 1015.15 1015.23 1015.31 1015.35 1015.39 1015.39 1015.47 1015.47 1015.47 1015.47 1015.55 1015.63 1015.71 1015.79 1015.91 1016.03 1016.15 1016.27 1016.39 1016.51 1016.67 1016.79 1016.91 1016.99 1017.07 1017.19 1017.35 1017.51 1017.67 1017.83 1017.99 1018.19 1018.35 1018.55 1018.71 1018.83 1018.91 1019.07 1019.19 1019.31 1019.47 1019.55 1019.63 1019.67 1019.79 1019.87 1019.95 1020.07 1020.15 1020.23 1020.31 1020.35 1020.47 1020.51 1020.59 1020.63 1020.67
1014.43 1014.47 1014.55 1014.63 1014.71 1014.79 1014.87 1014.95 1015.03 1015.07 1015.19 1015.31 1015.39 1015.47 1015.47 1015.51 1015.55 1015.59 1015.63 1015.63 1015.63 1015.67 1015.75 1015.83 1015.91 1016.07 1016.19 1016.31 1016.39 1016.47 1016.63 1016.71 1016.87 1016.99 1017.07 1017.19 1017.31 1017.47 1017.63 1017.79 1018.03 1018.19 1018.35 1018.51 1018.71 1018.87 1018.95 1019.07 1019.19 1019.31 1019.39 1019.47 1019.63 1019.71 1019.79 1019.83 1019.95 1020.07 1020.15 1020.23 1020.35 1020.43 1020.47 1020.55 1020.63 1020.67 1020.71 1020.75 1020.75
1014.67 1014.71 1014.75 1014.87 1014.95 1015.07 1015.11 1015.19 1015.23 1015.31 1015.39 1015.47 1015.59 1015.63 1015.67 1015.71 1015.75 1015.79 1015.79 1015.79 1015.79 1015.87 1015.95 1016.07 1016.19 1016.35 1016.43 1016.51 1016.63 1016.71 1016.79 1016.91 1017.07 1017.19 1017.31 1017.39 1017.59 1017.79 1017.95 1018.19 1018.39 1018.59 1018.71 1018.87 1018.99 1019.11 1019.23 1019.35 1019.43 1019.47 1019.55 1019.63 1019.79 1019.87 1019.95 1020.07 1020.19 1020.27 1020.35 1020.39 1020.47 1020.55 1020.63 1020.67 1020.75 1020.75 1020.79 1020.79 1020.79
1014.95 1014.95 1014.99 1015.07 1015.19 1015.27 1015.35 1015.43 1015.47 1015.55 1015.63 1015.67 1015.75 1015.79 1015.79 1015.83 1015.91 1015.95 1015.99 1015.99 1015.99 1016.07 1016.15 1016.27 1016.43 1016.55 1016.63 1016.75 1016.83 1016.95 1017.07 1017.19 1017.27 1017.35 1017.51 1017.71 1017.91 1018.11 1018.35 1018.55 1018.75 1018.91 1019.07 1019.15 1019.23 1019.35 1019.47 1019.55 1019.63 1019.67 1019.75 1019.83 1019.91 1020.07 1020.15 1020.23 1020.35 1020.43 1020.47 1020.55 1020.59 1020.67 1020.75 1020.75 1020.75 1020.79 1020.83 1020.87 1020.87
1015.23 1015.19 1015.19 1015.27 1015.39 1015.47 1015.59 1015.63 1015.71 1015.79 1015.79 1015.87 1015.91 1015.91 1015.95 1015.99 1016.07 1016.15 1016.19 1016.19 1016.19 1016.27 1016.39 1016.51 1016.63 1016.75 1016.91 1017.03 1017.11 1017.19 1017.35 1017.47 1017.55 1017.67 1017.87 1018.07 1018.27 1018.47 1018.63 1018.87 1019.07 1019.27 1019.35 1019.43 1019.51 1019.63 1019.67 1019.75 1019.79 1019.87 1019.91 1020.03 1020.11 1020.19 1020.35 1020.39 1020.47 1020.51 1020.59 1020.63 1020.67 1020.75 1020.79 1020.83 1020.87 1020.87 1020.91 1020.91 1020.95
1015.47 1015.47 1015.47 1015.47 1015.59 1015.67 1015.79 1015.83 1015.91 1015.95 1016.03 1016.07 1016.07 1016.11 1016.19 1016.19 1016.27 1016.31 1016.35 1016.35 1016.39 1016.47 1016.63 1016.75 1016.87 1016.99 1017.11 1017.23 1017.35 1017.51 1017.67 1017.79 1017.91 1018.07 1018.27 1018.47 1018.63 1018.79 1018.95 1019.19 1019.35 1019.55 1019.63 1019.67 1019.79 1019.83 1019.91 1019.91 1019.99 1020.07 1020.15 1020.19 1020.31 1020.35 1020.43 1020.51 1020.59 1020.63 1020.67 1020.71 1020.75 1020.83 1020.87 1020.87 1020.91 1020.91 1020.91 1020.95 1021.03
1015.63 1015.63 1015.67 1015.71 1015.79 1015.91 1015.95 1016.07 1016.11 1016.15 1016.19 1016.23 1016.27 1016.35 1016.39 1016.43 1016.47 1016.51 1016.55 1016.63 1016.71 1016.75 1016.91 1017.07 1017.19 1017.35 1017.43 1017.59 1017.71 1017.87 1018.07 1018.27 1018.39 1018.51 1018.63 1018.79 1018.95 1019.11 1019.23 1019.43 1019.63 1019.79 1019.87 1019.91 1019.95 1019.99 1020.07 1020.07 1020.15 1020.23 1020.31 1020.39 1020.47 1020.51 1020.55 1020.63 1020.67 1020.71 1020.75 1020.75 1020.79 1020.83 1020.87 1020.83 1020.87 1020.87 1020.91 1020.91 1020.99
1015.83 1015.83 1015.91 1015.91 1016.03 1016.11 1016.19 1016.23 1016.31 1016.35 1016.39 1016.43 1016.47 1016.55 1016.59 1016.63 1016.67 1016.75 1016.83 1016.95 1017.07 1017.19 1017.27 1017.47 1017.63 1017.75 1017.87 1017.99 1018.11 1018.27 1018.43 1018.63 1018.75 1018.91 1019.03 1019.07 1019.19 1019.35 1019.51 1019.63 1019.83 1019.99 1020.07 1020.11 1020.15 1020.19 1020.19 1020.27 1020.35 1020.39 1020.47 1020.55 1020.59 1020.63 1020.63 1020.67 1020.67 1020.71 1020.71 1020.75 1020.75 1020.79 1020.83 1020.83 1020.83 1020.87 1020.87 1020.87 1020.91
Thickness
5651 5652 5653 5654 5654 5655 5656 5656 5656 5655 5655 5655 5654 5655 5653 5652 5652 5651 5650 5649 5648 5646 5645 5644 5643 5641 5640 5638 5636 5634 5633 5632 5631 5628 5627 5625 5623 5622 5620 5618 5616 5614 5613 5610 5608 5604 5602 5600 5599 5597 5594 5592 5591 5588 5586 5585 5586 5587 5586 5586 5587 5587 5588 5589 5588 5586 5584 5582 5580
5648 5649 5649 5650 5651 5652 5653 5654 5654 5654 5653 5652 5652 5652 5651 5650 5649 5649 5648 5646 5645 5644 5643 5641 5640 5638 5637 5635 5634 5632 5630 5628 5627 5625 5623 5622 5620 5618 5616 5613 5611 5609 5607 5605 5602 5600 5598 5596 5594 5591 5589 5587 5586 5583 5581 5579 5579 5579 5578 5578 5579 5580 5581 5582 5583 5582 5581 5579 5578
5646 5646 5647 5647 5648 5649 5650 5651 5652 5652 5651 5651 5649 5649 5648 5647 5647 5646 5645 5644 5643 5641 5640 5639 5637 5635 5634 5632 5630 5628 5627 5625 5623 5621 5618 5617 5615 5612 5610 5607 5605 5603 5601 5599 5597 5595 5594 5592 5589 5587 5585 5583 5581 5578 5575 5573 5572 5573 5572 5571 5571 5573 5573 5574 5575 5577 5576 5575 5574
5644 5643 5644 5645 5645 5646 5647 5648 5649 5649 5649 5648 5647 5646 5645 5645 5644 5643 5642 5642 5640 5639 5637 5636 5634 5632 5630 5628 5627 5624 5622 5620 5618 5616 5613 5611 5608 5606 5604 5602 5599 5597 5595 5593 5592 5590 5588 5587 5584 5583 5581 5580 5577 5572 5570 5568 5568 5567 5567 5566 5566 5567 5567 5567 5568 5570 5570 5570 5569
5642 5642 5641 5642 5642 5643 5644 5644 5646 5646 5646 5646 5645 5644 5643 5642 5641 5640 5639 5638 5637 5636 5634 5633 5631 5628 5627 5625 5622 5620 5618 5615 5612 5609 5607 5604 5602 5599 5596 5594 5592 5591 5589 5588 5586 5584 5583 5582 5580 5579 5578 5576 5572 5569 5566 5564 5563 5562 5562 5562 5562 5561 5561 5561 5562 5562 5564 5564 5564
5639 5639 5639 5639 5639 5639 5640 5640 5642 5643 5643 5643 5642 5642 5641 5640 5639 5637 5636 5635 5633 5632 5630 5629 5628 5625 5623 5620 5617 5614 5611 5609 5606 5603 5600 5597 5593 5591 5588 5586 5585 5584 5582 5581 5580 5578 5577 5577 5575 5575 5575 5573 5570 5565 5562 5561 5560 5558 5558 5558 5557 5557 5557 5557 5556 5557 5558 5559 5558
5636 5636 5636 5636 5636 5636 5637 5637 5638 5638 5639 5639 5640 5639 5638 5638 5636 5635 5634 5632 5630 5628 5626 5625 5623 5621 5617 5614 5610 5608 5604 5602 5599 5596 5593 5588 5586 5583 5580 5578 5578 5577 5575 5574 5573 5572 5571 5571 5571 5571 5571 5570 5567 5563 5558 5558 5556 5556 5554 5554 5553 5553 5553 5553 5552 5553 5554 5554 5554
5633 5633 5633 5634 5634 5634 5634 5634 5634 5634 5635 5636 5637 5636 5636 5635 5634 5632 5630 5629 5627 5625 5622 5619 5617 5613 5610 5607 5604 5600 5597 5594 5590 5587 5584 5581 5578 5576 5573 5572 5570 5569 5568 5567 5566 5566 5565 5565 5565 5566 5567 5566 5563 5560 5556 5553 5553 5552 5551 5550 5549 5548 5548 5548 5548 5549 5550 5550 5550
5630 5631 5631 5632 5631 5631 5632 5631 5631 5631 5631 5632 5632 5632 5632 5631 5630 5629 5627 5625 5623 5620 5616 5612 5609 5606 5603 5599 5596 5592 5589 5585 5582 5579 5575 5573 5571 5569 5567 5565 5563 5562 5561 5559 5559 5559 5558 5559 5559 5560 5561 5561 5560 5557 5553 5551 5550 5549 5547 5546 5545 5544 5544 5544 5544 5544 5545 5546 5545
5628 5628 5629 5629 5629 5629 5629 5628 5628 5628 5627 5628 5628 5628 5627 5627 5626 5624 5622 5620 5617 5614 5610 5607 5604 5599 5594 5590 5586 5583 5579 5576 5572 5569 5567 5565 5563 5561 5559 5557 5556 5554 5553 5552 5552 5552 5552 5552 5553 5554 5555 5555 5554 5553 5550 5548 5547 5546 5543 5541 5541 5540 5539 5539 5539 5540 5541 5541 5541
5625 5626 5626 5627 5627 5627 5626 5626 5625 5625 5624 5624 5624 5623 5623 5622 5621 5618 5616 5613 5610 5607 5604 5600 5596 5592 5587 5582 5578 5574 5570 5567 5564 5561 5558 5557 5555 5553 5552 5550 5548 5547 5546 5545 5545 5545 5545 5545 5546 5547 5547 5548 5547 5546 5545 5545 5544 5542 5539 5537 5537 5536 5535 5535 5535 5535 5536 5536 5536
5623 5623 5624 5624 5624 5623 5624 5623 5622 5622 5621 5621 5621 5619 5618 5615 5613 5611 5608 5606 5602 5598 5594 5591 5587 5583 5578 5574 5570 5566 5563 5560 5557 5554 5551 5549 5548 5546 5544 5543 5541 5540 5539 5538 5538 5538 5538 5538 5539 5540 5541 5541 5541 5540 5540 5541 5540 5538 5535 5533 5533 5533 5532 5530 5530 5530 5530 5531 5531
5621 5621 5621 5622 5621 5621 5620 5620 5620 5620 5619 5618 5616 5614 5611 5607 5604 5602 5600 5597 5593 5589 5584 5581 5577 5573 5569 5566 5562 5559 5556 5552 5550 5547 5544 5542 5540 5539 5537 5536 5534 5533 5532 5531 5531 5531 5531 5531 5532 5533 5534 5534 5535 5535 5536 5537 5536 5534 5531 5530 5529 5529 5528 5526 5526 5525 5525 5526 5526
5618 5619 5619 5619 5619 5618 5618 5618 5618 5617 5615 5612 5609 5606 5603 5599 5596 5593 5590 5588 5584 5580 5576 5573 5569 5565 5562 5559 5555 5552 5549 5546 5543 5541 5538 5536 5534 5532 5531 5529 5527 5526 5525 5524 5524 5523 5523 5523 5524 5525 5527 5529 5530 5531 5533 5533 5533 5532 5530 5527 5526 5525 5523 5522 5521 5521 5521 5521 5521
5616 5616 5616 5616 5616 5616 5616 5615 5614 5612 5608 5605 5602 5599 5595 5592 5588 5586 5583 5579 5576 5573 5569 5565 5561 5557 5554 5551 5548 5545 5542 5539 5537 5535 5532 5530 5527 5525 5523 5522 5520 5519 5518 5517 5517 5516 5516 5516 5517 5517 5520 5523 5527 5529 5529 5528 5528 5527 5524 5522 5521 5520 5519 5518 5517 5517 5517 5517 5516
5613 5613 5613 5613 5613 5613 5613 5611 5608 5605 5602 5599 5596 5592 5589 5585 5582 5579 5576 5572 5568 5565 5561 5557 5554 5550 5547 5544 5541 5539 5536 5534 5531 5529 5526 5523 5521 5518 5516 5514 5512 5511 5511 5511 5510 5510 5509 5509 5509 5510 5512 5516 5522 5525 5524 5521 5521 5520 5519 5517 5516 5515 5513 5514 5514 5513 5512 5512 5512
5609 5610 5610 5609 5609 5608 5607 5605 5602 5599 5596 5593 5590 5586 5583 5579 5576 5572 5568 5564 5561 5557 5554 5550 5547 5544 5541 5538 5536 5534 5531 5529 5525 5523 5520 5518 5514 5511 5509 5508 5506 5505 5504 5504 5505 5504 5503 5503 5503 5504 5506 5508 5513 5517 5517 5515 5513 5512 5511 5509 5508 5508 5509 5509 5509 5508 5507 5507 5507
5606 5606 5605 5605 5605 5603 5600 5597 5596 5593 5590 5586 5583 5580 5576 5573 5569 5566 5562 5558 5555 5551 5548 5544 5541 5539 5536 5533 5531 5528 5526 5523 5520 5517 5514 5511 5508 5505 5503 5501 5499 5499 5499 5500 5499 5499 5499 5498 5498 5498 5499 5500 5503 5506 5509 5509 5508 5506 5503 5502 5501 5501 5503 5504 5504 5503 5503 5502 5502
5602 5601 5599 5598 5597 5595 5593 5591 5589 5586 5583 5580 5576 5574 5570 5567 5564 5560 5557 5553 5550 5546 5543 5539 5536 5533 5530 5528 5525 5522 5520 5517 5514 5511 5508 5505 5502 5500 5497 5496 5495 5495 5495 5495 5494 5494 5494 5493 5493 5493 5493 5494 5494 5496 5499 5501 5502 5500 5498 5495 5495 5495 5496 5498 5499 5498 5497 5497 5497
5595 5594 5592 5591 5590 5588 5586 5584 5582 5579 5576 5573 5569 5567 5564 5561 5558 5555 5552 5548 5544 5540 5537 5534 5530 5527 5525 5522 5520 5517 5514 5511 5509 5506 5503 5500 5497 5495 5493 5492 5491 5491 5490 5490 5489 5489 5489 5489 5488 5488 5488 5488 5488 5488 5489 5492 5495 5495 5493 5490 5489 5490 5491 5493 5494 5493 5492 5492 5492
5588 5587 5585 5584 5583 5582 5580 5578 5575 5572 5570 5567 5564 5561 5559 5556 5553 5549 5546 5543 5539 5535 5532 5529 5526 5523 5520 5518 5516 5513 5509 5506 5504 5501 5499 5496 5493 5492 5490 5489 5488 5487 5486 5485 5484 5484 5484 5484 5484 5483 5482 5482 5482 5482 5483 5484 5486 5487 5487 5485 5484 5485 5487 5489 5489 5488 5487 5487 5486
5583 5581 5580 5579 5578 5576 5574 5571 5569 5566 5563 5561 5558 5555 5553 5551 5548 5544 5541 5537 5534 5530 5527 5524 5522 5519 5517 5514 5511 5508 5505 5502 5500 5497 5495 5493 5490 5488 5487 5485 5484 5483 5482 5481 5480 5479 5479 5479 5479 5479 5477 5477 5477 5477 5478 5479 5479 5479 5479 5479 5479 5481 5484 5486 5486 5485 5482 5481 5481
5579 5576 5575 5574 5572 5570 5568 5566 5563 5561 5558 5555 5553 5551 5549 5546 5543 5539 5536 5533 5529 5526 5523 5520 5518 5515 5513 5510 5507 5504 5502 5499 5496 5494 5492 5489 5487 5484 5483 5482 5480 5479 5478 5477 5476 5475 5474 5474 5476 5477 5476 5475 5474 5474 5475 5475 5474 5473 5473 5473 5475 5478 5481 5483 5483 5480 5478 5477 5476
5574 5573 5571 5569 5567 5565 5563 5560 5558 5555 5553 5551 5549 5546 5544 5541 5538 5535 5532 5528 5525 5522 5519 5516 5513 5511 5508 5506 5503 5501 5499 5496 5494 5491 5488 5486 5483 5481 5479 5477 5476 5474 5474 5474 5473 5472 5471 5470 5473 5475 5475 5475 5474 5474 5473 5471 5471 5469 5469 5469 5471 5473 5475 5476 5476 5475 5473 5472 5471
5570 5568 5566 5565 5562 5560 5558 5556 5554 5551 5549 5547 5545 5542 5539 5536 5534 5530 5527 5524 5520 5517 5514 5511 5509 5506 5504 5501 5499 5497 5495 5494 5492 5489 5487 5484 5481 5479 5476 5473 5472 5470 5470 5470 5471 5471 5470 5468 5469 5471 5474 5475 5474 5473 5472 5469 5466 5465 5464 5465 5467 5467 5469 5469 5469 5469 5469 5468 5467
5566 5565 5563 5561 5559 5556 5554 5552 5550 5547 5545 5542 5540 5537 5535 5531 5529 5525 5522 5519 5516 5513 5509 5507 5504 5502 5500 5497 5495 5493 5492 5490 5488 5486 5484 5482 5479 5477 5474 5471 5468 5467 5467 5468 5469 5470 5469 5466 5465 5466 5469 5470 5470 5469 5469 5467 5463 5461 5460 5461 5462 5463 5464 5464 5465 5465 5465 5464 5463
5563 5561 5558 5556 5554 5552 5549 5546 5544 5542 5539 5537 5535 5532 5529 5527 5523 5520 5517 5514 5511 5508 5505 5503 5500 5498 5495 5493 5492 5489 5488 5487 5485 5484 5482 5480 5477 5475 5472 5469 5466 5464 5464 5465 5468 5469 5468 5465 5463 5462 5463 5462 5461 5461 5461 5461 5460 5458 5457 5457 5458 5459 5460 5461 5462 5462 5462 5461 5460
5558 5556 5554 5552 5549 5546 5544 5541 5539 5536 5534 5531 5529 5527 5524 5521 5518 5515 5512 5509 5506 5504 5501 5499 5496 5494 5492 5490 5488 5486 5485 5484 5482 5480 5478 5476 5474 5472 5470 5467 5464 5463 5462 5463 5467 5469 5468 5465 5462 5459 5458 5457 5457 5456 5456 5455 5454 5453 5452 5453 5454 5455 5456 5458 5459 5459 5459 5458 5457
5554 5551 5549 5547 5545 5542 5539 5536 5533 5531 5528 5526 5524 5521 5519 5516 5513 5510 5507 5505 5502 5499 5497 5495 5492 5491 5489 5487 5485 5483 5482 5481 5478 5476 5474 5471 5470 5468 5466 5463 5462 5461 5460 5460 5462 5463 5463 5460 5457 5455 5454 5454 5454 5453 5452 5452 5451 5450 5450 5451 5451 5453 5454 5454 5455 5456 5456 5455 5455
5548 5546 5544 5543 5540 5537 5535 5532 5529 5527 5524 5521 5519 5517 5514 5512 5509 5506 5504 5501 5499 5496 5494 5492 5490 5488 5486 5484 5482 5481 5479 5477 5475 5472 5470 5468 5466 5464 5462 5460 5459 5458 5458 5458 5458 5457 5456 5454 5453 5452 5452 5451 5451 5450 5449 5448 5448 5448 5448 5448 5449 5450 5451 5452 5453 5452 5452 5452 5451
5544 5542 5540 5538 5536 5534 5531 5528 5525 5522 5520 5518 5515 5513 5510 5508 5505 5503 5500 5498 5495 5493 5491 5489 5487 5485 5484 5482 5480 5478 5476 5474 5471 5469 5467 5465 5463 5461 5460 5458 5457 5456 5455 5455 5455 5454 5452 5451 5450 5449 5448 5448 5447 5446 5446 5446 5445 5445 5445 5446 5447 5447 5448 5449 5449 5449 5449 5449 5449
5539 5537 5535 5534 5532 5530 5527 5524 5522 5519 5517 5514 5512 5509 5507 5505 5502 5500 5497 5495 5493 5491 5489 5487 5485 5483 5481 5479 5477 5475 5473 5471 5468 5466 5464 5462 5461 5459 5457 5456 5455 5454 5453 5452 5451 5450 5448 5447 5446 5445 5445 5445 5444 5444 5444 5444 5443 5444 5443 5444 5445 5445 5446 5446 5446 5446 5446 5446 5446
5535 5533 5532 5530 5528 5525 5524 5521 5518 5516 5513 5511 5509 5506 5504 5502 5500 5498 5496 5494 5491 5490 5488 5485 5483 5481 5479 5477 5475 5472 5470 5468 5466 5464 5462 5461 5459 5457 5456 5454 5452 5451 5450 5449 5447 5446 5444 5444 5443 5442 5442 5442 5442 5442 5441 5441 5441 5442 5441 5442 5442 5442 5443 5442 5443 5443 5443 5442 5442
5530 5529 5527 5526 5523 5522 5519 5517 5515 5513 5511 5508 5506 5504 5502 5500 5499 5496 5495 5492 5490 5489 5486 5484 5482 5479 5477 5474 5473 5470 5468 5466 5464 5462 5460 5458 5457 5455 5453 5451 5449 5448 5446 5445 5443 5442 5442 5441 5441 5441 5440 5440 5440 5439 5440 5440 5440 5440 5440 5440 5439 5439 5439 5439 5440 5439 5439 5439 5439
5526 5525 5524 5522 5520 5518 5516 5514 5513 5510 5508 5506 5503 5502 5500 5498 5497 5495 5493 5491 5489 5488 5485 5482 5480 5477 5475 5472 5470 5469 5467 5465 5462 5461 5459 5457 5455 5453 5451 5449 5447 5445 5444 5442 5441 5440 5440 5439 5439 5439 5439 5438 5439 5438 5438 5438 5438 5438 5437 5437 5437 5437 5437 5437 5437 5437 5437 5438 5438
5523 5522 5520 5518 5516 5515 5513 5511 5509 5508 5505 5503 5501 5499 5498 5496 5494 5493 5491 5490 5488 5486 5484 5481 5478 5475 5473 5471 5469 5467 5466 5464 5462 5460 5458 5456 5454 5452 5450 5447 5445 5443 5442 5440 5439 5439 5438 5438 5438 5437 5438 5437 5437 5437 5437 5436 5436 5436 5435 5436 5435 5435 5435 5435 5435 5435 5435 5435 5436
5519 5518 5517 5516 5513 5511 5510 5508 5506 5504 5502 5501 5498 5498 5496 5494 5492 5491 5489 5488 5486 5484 5482 5479 5476 5474 5472 5470 5468 5466 5464 5463 5462 5459 5457 5455 5453 5451 5448 5446 5444 5442 5441 5440 5439 5438 5437 5437 5437 5437 5437 5436 5436 5435 5435 5434 5434 5434 5433 5434 5434 5434 5433 5433 5433 5433 5433 5433 5433
5515 5514 5513 5512 5510 5508 5507 5505 5503 5502 5500 5498 5497 5495 5494 5492 5491 5488 5487 5485 5484 5482 5480 5477 5475 5473 5471 5469 5467 5465 5463 5461 5460 5458 5455 5453 5451 5449 5446 5444 5442 5441 5439 5439 5438 5437 5436 5436 5436 5436 5435 5434 5434 5433 5433 5433 5433 5432 5432 5433 5432 5432 5432 5431 5431 5431 5431 5431 5431
5512 5511 5510 5509 5507 5506 5504 5502 5500 5499 5497 5496 5494 5493 5491 5490 5488 5486 5485 5484 5482 5480 5478 5476 5474 5472 5469 5467 5466 5463 5461 5459 5457 5455 5453 5450 5448 5446 5444 5442 5440 5439 5438 5437 5436 5436 5435 5435 5435 5434 5434 5433 5433 5432 5432 5432 5431 5432 5431 5431 5431 5430 5430 5430 5430 5430 5430 5429 5429
5509 5508 5507 5505 5504 5502 5500 5499 5498 5496 5495 5493 5492 5489 5489 5487 5485 5484 5482 5481 5479 5477 5475 5473 5471 5469 5467 5465 5463 5460 5458 5455 5453 5452 5450 5448 5446 5444 5443 5440 5439 5437 5436 5435 5435 5435 5434 5433 5433 5433 5433 5432 5431 5431 5431 5431 5431 5430 5430 5430 5430 5430 5429 5429 5429 5429 5428 5428 5428
5505 5505 5503 5502 5501 5499 5497 5496 5494 5493 5491 5490 5488 5486 5485 5484 5483 5480 5479 5477 5475 5473 5471 5469 5467 5465 5463 5461 5459 5457 5455 5453 5450 5449 5448 5446 5445 5443 5441 5439 5437 5436 5435 5434 5433 5433 5432 5432 5432 5431 5431 5430 5430 5430 5430 5430 5430 5430 5429 5429 5429 5429 5428 5428 5428 5428 5427 5427 5427